Location: Banksville Park
(38.5557°N, 75.1182°W)
Time: 18:51:04
(UTC+00:00)

SAR-Lupe-1 - Pass Details

Date: 18 January 2021
Orbit: 482 x 484 km, 98.2° (Epoch: 02 March)

Event Time Altitude Azimuth Distance (km) Brightness Sun altitude
Exits shadow 22:41:23 - 42° (NE) 1,971 6.6 -7.0°
Reaches altitude 10° 22:42:22 10° 52° (NE) 1,666 6.2 -7.2°
Maximum altitude 22:44:49 17° 95° (E) 1,269 5.6 -7.6°
Drops below altitude 10° 22:47:15 10° 139° (SE) 1,656 6.6 -8.1°
Sets 22:49:49 0° 159° (SSE) 2,530 7.7 -8.5°
